Weather History for Peoria, IL

Change the Weather History Date:

Monday, May 7, 2012

  Actual Average Record
Temperature  
Mean Temperature 63 °F 60 °F  
Max Temperature 68 °F 71 °F 92 °F (1896)
Min Temperature 57 °F 49 °F 28 °F (1906)
Degree Days  
Heating Degree Days 2 7  
Month to date heating degree days 7 51  
Since 1 July heating degree days 4532 5716  
Cooling Degree Days 0 1  
Month to date cooling degree days 36 7  
Year to date cooling degree days 87 21  
Growing Degree Days 14 (Base 50)    
Moisture  
Dew Point 60 °F    
Average Humidity 83    
Maximum Humidity 93    
Minimum Humidity 73    
Precipitation  
Precipitation 0.04 in 0.14 in 1.51 in (1945)
Month to date precipitation 1.47 0.96  
Year to date precipitation 8.44 10.96  
Snow  
Snow 0.00 in 0.00 in 0.00 in ()
Month to date snowfall 0.0 0.0  
Since 1 July snowfall 11.5 24.6  
Snow Depth 0.00 in    
Sea Level Pressure  
Sea Level Pressure 29.87 in    
Wind  
Wind Speed 5 mph (North)    
Max Wind Speed 17 mph    
Max Gust Speed 23 mph    
Visibility 10 miles    
Events Rain    
T = Trace of Precipitation, MM = Missing Value Source: NWS Daily Summary

Daily Weather History Graph

Daily Weather History Graph

Search for Another Location

Airport:

Trip Planner

Search our weather history database for the weather conditions in past years. The results will help you decide how hot, cold, wet, or windy it might be!

Date:

Astronomy

May. 07, 2012 Rise Set
Actual Time 5:49 AM CDT 8:01 PM CDT
Civil Twilight 5:19 AM CDT 8:31 PM CDT
Nautical Twilight 4:42 AM CDT 9:09 PM CDT
Astronomical Twilight 4:01 AM CDT 9:50 PM CDT
Moon 10:13 PM CDT (5/7) 6:54 AM CDT (5/7)
Length of Visible Light 15h 12m
Length of Day
14h 11m
Waning Gibbous, 96% of the Moon is Illuminated
May 7
Waning Gibbous
May 12
Last Quarter
May 20
New
May 28
First Quarter
Jun 4
Full

Hourly Weather History & Observations

Time (CDT) Temp. Dew Point Humidity Pressure Visibility Wind Dir Wind Speed Gust Speed Precip Events Conditions
12:54 AM 66.9 °F 62.1 °F 84% 29.81 in 10.0 mi North 6.9 mph - N/A   Clear
1:11 AM 68.0 °F 62.6 °F 83% 29.82 in 10.0 mi NNE 8.1 mph - N/A   Mostly Cloudy
1:54 AM 66.0 °F 62.1 °F 87% 29.79 in 10.0 mi NE 11.5 mph 17.3 mph N/A   Mostly Cloudy
2:09 AM 66.2 °F 62.6 °F 88% 29.80 in 10.0 mi NE 10.4 mph - N/A   Scattered Clouds
2:54 AM 66.0 °F 61.0 °F 84% 29.80 in 10.0 mi East 11.5 mph - N/A   Scattered Clouds
3:47 AM 66.2 °F 62.6 °F 88% 29.87 in 10.0 mi WNW 10.4 mph - N/A   Mostly Cloudy
3:54 AM 66.9 °F 62.1 °F 84% 29.84 in 10.0 mi North 4.6 mph - N/A   Mostly Cloudy
4:02 AM 66.2 °F 62.6 °F 88% 29.86 in 10.0 mi NW 4.6 mph - N/A   Overcast
4:54 AM 64.9 °F 62.1 °F 90% 29.84 in 10.0 mi Calm Calm - 0.00 in   Overcast
5:54 AM 64.0 °F 62.1 °F 93% 29.84 in 10.0 mi North 3.5 mph - 0.02 in Rain Light Rain
6:54 AM 64.0 °F 62.1 °F 93% 29.86 in 5.0 mi East 6.9 mph - 0.01 in Rain Light Rain
7:54 AM 66.0 °F 63.0 °F 90% 29.86 in 7.0 mi West 5.8 mph - 0.01 in   Scattered Clouds
8:54 AM 66.0 °F 64.0 °F 93% 29.86 in 10.0 mi NW 6.9 mph - N/A   Scattered Clouds
9:03 AM 66.2 °F 64.4 °F 94% 29.88 in 10.0 mi Variable 4.6 mph - N/A   Mostly Cloudy
9:51 AM 66.2 °F 62.6 °F 88% 29.88 in 10.0 mi NNW 6.9 mph - N/A   Overcast
9:54 AM 66.0 °F 62.1 °F 87% 29.88 in 10.0 mi NNW 8.1 mph - N/A   Overcast
10:01 AM 66.2 °F 62.6 °F 88% 29.88 in 10.0 mi NNW 8.1 mph - N/A   Overcast
10:42 AM 64.4 °F 60.8 °F 88% 29.90 in 10.0 mi North 5.8 mph - N/A   Overcast
10:54 AM 66.0 °F 62.1 °F 87% 29.89 in 10.0 mi Variable 4.6 mph - N/A   Overcast
11:54 AM 66.0 °F 61.0 °F 84% 29.90 in 10.0 mi NNW 6.9 mph - N/A   Overcast
12:54 PM 64.0 °F 59.0 °F 84% 29.89 in 10.0 mi North 10.4 mph 16.1 mph N/A   Overcast
1:54 PM 64.9 °F 60.1 °F 84% 29.89 in 10.0 mi North 4.6 mph - N/A   Overcast
2:31 PM 66.2 °F 59.0 °F 78% 29.90 in 10.0 mi Variable 5.8 mph - N/A   Overcast
2:54 PM 64.9 °F 59.0 °F 81% 29.89 in 10.0 mi NNW 5.8 mph - N/A   Overcast
3:54 PM 64.0 °F 57.9 °F 80% 29.89 in 10.0 mi North 5.8 mph - N/A   Overcast
4:07 PM 64.4 °F 57.2 °F 77% 29.90 in 10.0 mi NNW 6.9 mph - N/A   Overcast
4:34 PM 64.4 °F 59.0 °F 83% 29.90 in 10.0 mi North 5.8 mph - N/A   Overcast
4:54 PM 66.0 °F 59.0 °F 78% 29.88 in 10.0 mi NNW 5.8 mph - N/A   Mostly Cloudy
5:54 PM 66.9 °F 59.0 °F 76% 29.88 in 10.0 mi NNW 3.5 mph - N/A   Scattered Clouds
6:54 PM 66.9 °F 57.9 °F 73% 29.87 in 10.0 mi Calm Calm - N/A   Clear
7:54 PM 64.9 °F 59.0 °F 81% 29.88 in 10.0 mi Calm Calm - N/A   Clear
8:54 PM 62.1 °F 57.9 °F 86% 29.88 in 10.0 mi Calm Calm - N/A   Clear
9:54 PM 59.0 °F 57.0 °F 93% 29.90 in 8.0 mi Calm Calm - N/A   Clear
10:54 PM 59.0 °F 55.9 °F 90% 29.91 in 10.0 mi NW 3.5 mph - N/A   Clear
11:54 PM 59.0 °F 51.1 °F 75% 29.90 in 10.0 mi NW 3.5 mph - N/A   Clear